Flag for Canada Weather past 2 weeks in Miramichi, New Brunswick, Canada

Now
23 °F

Passing clouds.


Feels Like: 18 °F
Forecast: 20 / 32 °F
Wind: 3 mph from Northwest

Location: Bathurst Airport

Current Time: Mar 28, 2015 at 7:04:25 AM

Latest Report: Mar 28, 2015 at 6:00 AM


Visibility: 15 mi

Pressure: 29.86 "Hg

Humidity: 63%

Dew point: 12 °F

Location of MiramichiLocation

Historic Weather in Miramichi — Graph

°F

Miramichi temperature yesterday

Maximum temperature yesterday: 43 °F (at 4:00 PM)
Minimum temperature yesterday: 27 °F (at 7:00 AM)
Average temperature yesterday: 37 °F

Past Weeks' High & Low Weather Summary

 TemperatureHumidityPressure
High45 °F (Mar 26, 5:00 PM)100% (Mar 22, 6:00 AM)30.39 "Hg (Mar 22, 6:00 AM)
Low-6 °F (Mar 14, 5:00 AM)23% (Mar 16, 3:00 PM)29.23 "Hg (Mar 22, 1:00 PM)
Average23 °F58%29.84 "Hg
* Reported Mar 13 6:00 AM — Mar 28 6:00 AM, Miramichi, Weather by CustomWeather, © 2015

Note: Actual official high and low records may vary slightly from our data, if they occured in-between our weather recording intervals... More about our weather records

Advertising

Miramichi weather history for previous 24 hours

 ConditionsComfort  
Time TempWeatherWind HumidityBarometerVisibility
6:00 AM
Sat, Mar 28
23 °FPassing clouds.3 mph63%29.86 "Hg15 mi
5:00 AM23 °FClear.6 mph63%29.83 "Hg15 mi
4:00 AM25 °FClear.5 mph59%29.82 "Hg15 mi
3:00 AM27 °FClear.6 mph54%29.81 "Hg15 mi
2:00 AM27 °FClear.7 mph54%29.80 "Hg15 mi
1:00 AM28 °FClear.5 mph51%29.80 "Hg15 mi
12:00 AM28 °FClear.5 mph51%29.78 "Hg15 mi
11:00 PM
Fri, Mar 27
30 °FPassing clouds.9 mph51%29.77 "Hg15 mi
10:00 PM32 °FPassing clouds.8 mph51%29.75 "Hg15 mi
9:00 PM36 °FPartly cloudy.9 mph44%29.72 "Hg15 mi
8:00 PM37 °FMostly cloudy.7 mph48%29.70 "Hg15 mi
7:00 PM39 °FPartly sunny.5 mph48%29.66 "Hg15 mi
6:00 PM41 °FPartly sunny.12 mph42%29.64 "Hg15 mi
5:00 PM43 °FBroken clouds.10 mph39%29.61 "Hg15 mi
4:00 PM43 °FMore clouds than sun.15 mph42%29.61 "Hg15 mi
3:00 PM41 °FCloudy.12 mph42%29.61 "Hg15 mi
2:00 PM41 °FMostly cloudy.9 mph45%29.62 "Hg15 mi
1:00 PM39 °FPartly sunny.12 mph52%29.63 "Hg15 mi
12:00 PM37 °FOvercast.10 mph56%29.65 "Hg15 mi
11:00 AM37 °FOvercast.10 mph56%29.66 "Hg15 mi
10:00 AM37 °FOvercast.7 mph60%29.64 "Hg15 mi
9:00 AM34 °FMore clouds than sun.7 mph70%29.63 "Hg15 mi
8:00 AM30 °FMostly cloudy.6 mph75%29.63 "Hg15 mi
7:00 AM27 °FOvercast.2 mph86%29.61 "Hg15 mi
Weather by CustomWeather, © 2015

See weather overviewHow to use our weather pages